Location: Ailly
(50.0793°N, 1.9944°E)
Time: 18:22:54
(UTC+00:00)

Okean 3 Rocket - Pass Details

Date: 15 January 2026
Orbit: 610 x 637 km, 82.5° (Epoch: 16 February)

Event Time Altitude Azimuth Distance (km) Brightness Sun altitude
Rises 06:01:16 0° 217° (SW) 2,875 6.8 -16.1°
Reaches altitude 10° 06:03:42 10° 229° (SW) 1,979 5.8 -15.7°
Maximum altitude 06:07:33 29° 290° (WNW) 1,139 4.3 -15.1°
Drops below altitude 10° 06:11:27 10° 351° (N) 2,007 5.9 -14.5°
Sets 06:13:57 0° 3° (N) 2,924 6.9 -14.1°
